Flag for India Weather past 2 weeks in Kãnpur, Uttar Pradesh, India

Now
100 °F

Partly sunny.


Feels Like: 99 °F
Forecast: 81 / 105 °F
Wind: 14 mph from Northwest

Location: Lucknow / Amausi


UV Index: 7 (High)

Visibility: 3 mi


Pressure: 29.77 "Hg

Humidity: 22%

Dew point: 55 °F

Location of KãnpurLocation

Historic Weather in Kãnpur

°F

Kãnpur temperature yesterday

Maximum temperature yesterday: 106 °F (at 2:00 PM)
Minimum temperature yesterday: 70 °F (at 6:00 AM)
Average temperature yesterday: 90 °F

Past Weeks' High & Low Weather Summary

 TemperatureHumidityPressure
High109 °F (Apr 7, 4:00 PM)100% (Apr 8, 8:30 AM)29.95 "Hg (Apr 8, 8:30 AM)
Low61 °F (Apr 4, 5:30 AM)10% (Apr 10, 2:30 PM)29.62 "Hg (Apr 2, 4:00 PM)
Average86 °F34%29.77 "Hg
* Reported Apr 1 12:30 PM — Apr 16 1:00 PM, Kãnpur, Weather by CustomWeather, © 2014

Note: Actual official high and low records may vary slightly from our data, if they occured in-between our weather recording intervals... More about our weather records

Advertising

Historic Weather Conditions — Data for Previous 24 hours

 ConditionsComfort  
Time TempWeatherWind HumidityBarometerVisibility
1:00 PM
Apr 16
100 °FPartly sunny.13 mph22%29.77 "Hg3 mi
12:30 PM99 °FPartly sunny.7 mph22%29.77 "Hg3 mi
12:00 PM99 °FPartly sunny.6 mph22%29.77 "Hg3 mi
11:30 AM99 °FPartly sunny.2 mph22%29.77 "Hg3 mi
10:30 AM95 °FHaze.5 mph32%29.80 "Hg3 mi
10:00 AM93 °FHaze.5 mph32%29.80 "Hg2 mi
8:00 AM84 °FHaze.2 mph45%29.77 "Hg1 mi
7:00 AM75 °FHaze.No wind57%29.77 "Hg1 mi
6:30 AM73 °FHaze.2 mph57%29.77 "Hg1 mi
6:00 AM72 °FHaze.2 mph61%29.74 "Hg1 mi
4:00 AM73 °FHaze.2 mph53%29.74 "Hg1 mi
3:00 AM73 °FHaze.No wind53%29.74 "Hg1 mi
2:00 AM73 °FHaze.2 mph57%29.74 "Hg1 mi
1:00 AM75 °FHaze.No wind57%29.77 "Hg2 mi
12:00 AM75 °FHaze.No wind57%29.77 "Hg2 mi
11:00 PM
Apr 15
79 °FHaze.No wind48%29.77 "Hg2 mi
9:00 PM88 °FHaze.2 mph31%29.77 "Hg2 mi
8:30 PM88 °FHaze.2 mph31%29.77 "Hg2 mi
7:30 PM91 °FPassing clouds.2 mph28%29.74 "Hg2 mi
7:00 PM95 °FPassing clouds.5 mph25%29.74 "Hg2 mi
6:30 PM97 °FHaze.3 mph23%29.74 "Hg2 mi
6:00 PM99 °FPartly sunny.5 mph22%29.74 "Hg3 mi
5:30 PM102 °FBroken clouds.6 mph20%29.71 "Hg3 mi
3:00 PM106 °FScattered clouds.5 mph18%29.74 "Hg3 mi
2:30 PM106 °FScattered clouds.5 mph19%29.77 "Hg3 mi
2:00 PM106 °FScattered clouds.5 mph20%29.77 "Hg3 mi
Weather by CustomWeather, © 2014

See weather overview